This is the latest recevied weather packets stored in our database for station/object N3WGC-14. If no packets are shown the sender has not sent any weather packets the latest 1 day(s).
| Time | Temp. | Humidity | Pressure | Rain* | Wind** | Luminosity | Snow |
|---|---|---|---|---|---|---|---|
| 1777995235 | 23.33° C | 61% | 1012.6 hPa | 0 mm | 1.34 m/s, 114° | - | - |
| 1777994935 | 23.33° C | 62% | 1012.6 hPa | 0 mm | 0.89 m/s, 117° | - | - |
| 1777994635 | 23.33° C | 61% | 1012.5 hPa | 0 mm | 0.89 m/s, 97° | - | - |
| 1777994335 | 23.33° C | 62% | 1012.6 hPa | 0 mm | 0.89 m/s, 104° | - | - |
| 1777994035 | 23.33° C | 61% | 1012.6 hPa | 0 mm | 1.34 m/s, 205° | - | - |
| 1777993735 | 22.78° C | 61% | 1012.6 hPa | 0 mm | 0.45 m/s, 88° | - | - |
| 1777993434 | 22.78° C | 62% | 1012.5 hPa | 0 mm | 2.24 m/s, 113° | - | - |
| 1777993134 | 22.78° C | 61% | 1012.5 hPa | 0 mm | 0.89 m/s, 106° | - | - |
| 1777992834 | 22.78° C | 62% | 1012.6 hPa | 0 mm | 1.34 m/s, 117° | - | - |
| 1777992534 | 22.78° C | 61% | 1012.5 hPa | 0 mm | 1.34 m/s, 103° | - | - |
| 1777992234 | 22.78° C | 61% | 1012.6 hPa | 0 mm | 1.34 m/s, 234° | - | - |
| 1777991934 | 22.78° C | 63% | 1012.5 hPa | 0 mm | 0.89 m/s, 237° | - | - |
| 1777991633 | 22.78° C | 62% | 1012.4 hPa | 0 mm | 0.89 m/s, 108° | - | - |
| 1777991333 | 22.22° C | 63% | 1012.4 hPa | 0 mm | 0.89 m/s, 194° | - | - |
| 1777991033 | 22.22° C | 62% | 1012.5 hPa | 0 mm | 0.89 m/s, 249° | - | - |
| 1777990733 | 22.22° C | 61% | 1012.6 hPa | 0 mm | 0.89 m/s, 261° | - | - |
| 1777990433 | 22.22° C | 60% | 1012.6 hPa | 0 mm | 1.34 m/s, 103° | - | - |
| 1777990133 | 22.22° C | 63% | 1012.6 hPa | 0 mm | 0.45 m/s, 224° | - | - |
| 1777989833 | 21.67° C | 63% | 1012.5 hPa | 0 mm | 0.45 m/s, 259° | - | - |
| 1777989532 | 21.11° C | 63% | 1012.6 hPa | 0 mm | 0.89 m/s, 134° | - | - |
| 1777989232 | 21.11° C | 62% | 1012.6 hPa | 0 mm | 1.34 m/s, 211° | - | - |
| 1777988932 | 21.11° C | 62% | 1012.7 hPa | 0 mm | 1.34 m/s, 219° | - | - |
| 1777988632 | 21.11° C | 63% | 1012.7 hPa | 0 mm | 0.45 m/s, 81° | - | - |
| 1777988332 | 21.11° C | 63% | 1012.6 hPa | 0 mm | 0.45 m/s, 90° | - | - |
| 1777988032 | 20.56° C | 63% | 1012.7 hPa | 0 mm | 0.45 m/s, 203° | - | - |
* Rain latest hour (hover to see other rain measurements)
** Current wind speed in m/s (hover to see current wind gust speed)